Location: Unspecified
(0.0000°N, 0.0000°E)
Time: 08:16:36
(UTC+00:00)

N. Korean satellite - Pass Details

Date: 21 September 2021
Orbit: 448 x 499 km, 97.3° (Epoch: 17 September)

Event Time Altitude Azimuth Distance (km) Brightness Sun altitude
Rises 04:01:31 0° 46° (NE) 2,540 10.9 -27.9°
Reaches altitude 10° 04:04:45 10° 79° (E) 1,675 10.2 -27.1°
Maximum altitude 04:06:07 12° 102° (ESE) 1,568 10.0 -26.7°
Drops below altitude 10° 04:07:30 10° 124° (SE) 1,686 10.0 -26.4°
Sets 04:10:46 0° 157° (SSE) 2,579 10.5 -25.6°
